CW9451 Weather Reports


Display with metric or nautical units.
time (UTC)temp
F
wind
direction
speed
MPH
gust
MPH
rain 1hr
in
rain 24hr
in
rain mn
in
humidity
%
barometer
mb
20260505124908 73 0.0 0.0 0.00 0.00 0.00 76 1009.4
20260505122904 71 0.0 0.0 0.00 0.00 0.00 81 1009.6
20260505121903 71 0.0 0.0 0.00 0.00 0.00 80 1009.7
20260505120904 70 0.0 0.0 0.00 0.00 0.00 81 1009.6
20260505115904 70 0.0 0.0 0.00 0.00 0.00 83 1009.8
20260505114904 71 0.0 0.0 0.00 0.00 0.00 83 1010.1
20260505113904 71 0.0 0.0 0.00 0.00 0.00 83 1010.2
20260505112905 70 0.0 0.0 0.00 0.00 0.00 87 1010.2
20260505111904 69 0.0 0.0 0.00 0.00 0.00 84 1010.0
20260505110905 69 0.0 0.0 0.00 0.00 0.00 86 1010.3
20260505101904 66 0.0 0.0 0.00 0.00 0.00 96 1011.3
20260505100904 66 0.0 0.0 0.00 0.00 0.00 99 1011.4
20260505095904 66 0.0 0.0 0.00 0.00 0.00 99 1011.4
20260505094905 65 0.0 0.0 0.00 0.00 0.00 99 1011.4
20260505093905 65 0.0 0.0 0.00 0.00 0.00 10 1011.4
20260505092904 65 0.0 0.0 0.00 0.00 0.00 10 1011.5
20260505091909 64 0.0 0.0 0.00 0.00 0.00 10 1011.5
20260505085904 64 0.0 0.0 0.00 0.00 0.00 10 1011.7
20260505084904 63 0.0 0.0 0.00 0.00 0.00 10 1011.8
20260505083904 63 0.0 0.0 0.00 0.00 0.00 10 1011.7
20260505082904 63 0.0 0.0 0.00 0.00 0.00 10 1011.7
20260505081905 63 0.0 0.0 0.00 0.00 0.00 10 1011.8
20260505080905 62 0.0 0.0 0.00 0.00 0.00 10 1011.7
20260505075904 62 0.0 0.0 0.00 0.00 0.00 10 1011.9
20260505074904 62 0.0 0.0 0.00 0.00 0.00 10 1011.9
20260505073905 62 0.0 0.0 0.00 0.00 0.00 10 1011.9
20260505072904 62 0.0 0.0 0.00 0.00 0.00 10 1012.0
20260505071904 62 0.0 0.0 0.00 0.00 0.00 10 1012.0
20260505070903 62 0.0 0.0 0.00 0.00 0.00 10 1012.1
20260505065908 62 0.0 0.0 0.00 0.00 0.00 10 1012.1
20260505063904 61 0.0 0.0 0.00 0.00 0.00 10 1012.2
20260505062904 61 0.0 0.0 0.00 0.00 0.00 10 1012.2
20260505061904 61 0.0 0.0 0.00 0.00 0.00 10 1012.3
20260505060905 61 0.0 0.0 0.00 0.00 0.00 10 1012.3
20260505055904 61 0.0 0.0 0.00 0.00 0.00 10 1012.4
20260505054909 61 0.0 0.0 0.00 0.00 0.00 10 1012.5
20260505052904 61 0.0 0.0 0.00 0.00 0.00 10 1012.5
20260505051903 61 0.0 0.0 0.00 0.00 0.00 10 1012.3
20260505050903 61 0.0 0.0 0.00 0.00 0.00 10 1012.4
20260505040904 61 0.0 0.0 0.00 0.00 0.00 10 1012.5
20260505035905 61 0.0 0.0 0.00 0.00 0.00 10 1012.5
20260505034905 61 0.0 0.0 0.00 0.00 0.00 10 1012.6
20260505033904 61 0.0 0.0 0.00 0.00 0.00 10 1012.8
20260505032904 61 0.0 0.0 0.00 0.00 0.00 10 1012.8
20260505031909 61 0.0 0.0 0.00 0.00 0.00 10 1012.8
20260505024904 61 0.0 0.0 0.00 0.00 0.00 10 1013.0
20260505023905 62 0.0 0.0 0.00 0.00 0.00 10 1013.1
20260505022904 61 0.0 0.0 0.00 0.00 0.00 10 1013.1
20260505021904 61 0.0 0.0 0.00 0.00 0.00 10 1013.3
20260505020904 61 0.0 0.0 0.00 0.00 0.00 10 1013.2
20260505015903 62 0.0 0.0 0.00 0.00 0.00 10 1013.2
20260505014904 62 0.0 0.0 0.00 0.00 0.00 10 1013.3
20260505013904 62 0.0 0.0 0.00 0.00 0.00 10 1013.3
20260505012904 62 0.0 0.0 0.00 0.00 0.00 10 1013.5
20260505011903 62 0.0 0.0 0.00 0.00 0.00 10 1013.5
20260505010908 62 0.0 0.0 0.00 0.00 0.00 10 1013.6
20260505004904 62 0.0 0.0 0.00 0.00 0.00 10 1013.7
20260505003905 62 0.0 0.0 0.00 0.00 0.00 10 1013.7
20260505002905 62 0.0 0.0 0.00 0.00 0.00 10 1013.8
20260505001904 62 0.0 0.0 0.00 0.00 0.00 10 1014.0
20260505000904 61 0.0 0.0 0.00 0.00 0.00 10 1014.1
20260504235903 61 0.0 0.0 0.00 0.00 0.00 10 1013.9
20260504234908 61 0.0 0.0 0.00 0.00 0.00 10 1013.8
20260504232904 62 0.0 0.0 0.00 0.00 0.00 10 1014.2
20260504231909 63 0.0 0.0 0.00 0.00 0.00 10 1014.5
20260504225904 63 0.0 0.0 0.00 0.00 0.00 10 1014.8
20260504224903 63 0.0 0.0 0.00 0.00 0.00 10 1014.8
20260504223908 63 0.0 0.0 0.00 0.00 0.00 10 1014.9
20260504221904 63 0.0 0.0 0.00 0.00 0.00 10 1014.9
20260504220903 63 0.0 0.0 0.00 0.00 0.00 10 1014.8
20260504215903 63 0.0 0.0 0.00 0.00 0.00 10 1014.9
20260504214908 63 0.0 0.0 0.00 0.00 0.00 10 1015.0
20260504212905 63 0.0 0.0 0.00 0.00 0.00 10 1015.1
20260504211910 63 0.0 0.0 0.00 0.00 0.00 10 1015.0
20260504205904 64 0.0 0.0 0.00 0.00 0.00 10 1015.5
20260504204904 64 0.0 0.0 0.00 0.00 0.00 10 1015.4
20260504203908 64 0.0 0.0 0.00 0.00 0.00 10 1015.5
20260504201909 64 0.0 0.0 0.00 0.00 0.00 10 1015.7
20260504195904 64 0.0 0.0 0.00 0.00 0.00 10 1015.4
20260504194904 65 0.0 0.0 0.00 0.00 0.00 10 1015.5
20260504193904 65 0.0 0.0 0.00 0.00 0.00 10 1015.4
20260504192904 65 0.0 0.0 0.00 0.00 0.00 10 1015.3
20260504191904 65 0.0 0.0 0.00 0.00 0.00 10 1015.2
20260504190909 65 0.0 0.0 0.00 0.00 0.00 10 1015.2
20260504184904 65 0.0 0.0 0.00 0.00 0.00 99 1015.2
20260504183904 65 0.0 0.0 0.00 0.00 0.00 10 1015.4
20260504182904 64 0.0 0.0 0.00 0.00 0.00 98 1015.0
20260504181904 66 0.0 0.0 0.00 0.00 0.00 93 1014.7
20260504180903 66 0.0 0.0 0.00 0.00 0.00 88 1014.6
20260504175904 66 0.0 0.0 0.00 0.00 0.00 84 1014.2
20260504174904 67 0.0 0.0 0.00 0.00 0.00 83 1014.0
20260504173904 67 0.0 0.0 0.00 0.00 0.00 81 1013.5
20260504172904 68 0.0 0.0 0.00 0.00 0.00 78 1013.4
20260504171904 69 0.0 0.0 0.00 0.00 0.00 81 1013.4
20260504170904 69 0.0 0.0 0.00 0.00 0.00 80 1013.2
20260504150905 74 0.0 0.0 0.00 0.00 0.00 64 1012.3
20260504140904 79 0.0 0.0 0.00 0.00 0.00 57 1012.7